Showing default

SATGUS, 62713

Orbit data source: Space-Track

SATGUS, 62713 is an American payload satellite in SSO that was launched on Tue, 14 Jan 2025 UTC via an FALCON 9 launch vehicle from the Air Force Western Test Range (AFWTR). Payload-class satellites include a variety of spacecraft equipped with specific instruments for various scientific and technological missions. These include communications satellites like Starlink; space stations such as the ISS; scientific satellites like the Hubble; Earth observation satellites from companies like Planet Labs, Umbra, and HawkEye 360; GPS; miniature CubeSats for education and research; and military/defense satellites.

Loading next visibility...
Identifier
62713, 2025-009DJ
Orbit
SSO
Country
Flag of USUS
Related business
Manufacturer
Terran Orbital
Mission
Operational Commercial Imaging
Bus & Motor
CUBESAT 12U, Unknown motor
Mass
~20 kg wet, ~20 kg dry
Launch date (UTC)
2025-01-14 (2 years ago)
Launch vehicle
FALCON 9
Launch site
Air Force Western Test Range (AFWTR)
Object type
Payload
Rocket body
Debris
Shape & HBR
Box, 0.6 m
Radar Cross Section
0.123 m², Medium (>0.1 m² and < 1m²)

Expand to show TLE details & history
Last TLE update: 11 hours ago

TLE from 11 hours ago
0 SATGUS
1 62713U 25009DJ  26238.16556698  .00006126  00000-0  47155-3 0  9992
2 62713  97.6928 318.8755 0003259 222.9525 137.1445 15.02026413 88066
Epoch: 2026-08-26T03:58Z
TLE epoch observation values (Epoch: 2026-08-26T03:58:24.987Z)
Latitude
-0.00004°
Longitude
-75.15108°
Altitude
565.365 km
Speed
7.578 km/s
True Right ascension
21h 15m 30s
True Declination
0° 00' 00"
Sunlit
Object was in full shadow at epoch
Visualization orbit readout
Latitude
Unknown
Longitude
Unknown
Altitude
Unknown
Speed
Unknown
Apparent Right ascension
Unknown
Apparent Declination
Unknown
Sunlit
N/A
Visualization observer readout
Local Sidereal Time
06:22:06
Azimuth
Unknown
Elevation
Unknown
Doppler factor
Unknown
Orbital elements
Apogee altitude
559.911 km
Perigee altitude
555.39 km
Semi-major axis
6,935.788 km
Eccentricity
0.00033
Inclination
97.6928°
RAAN
318.8755°
Arg. of periapsis
222.9525°
True anomaly
137.16989°
Mean anomaly
137.1445°
Eccentric anomaly
137.1572°
Mean motion
3.7575 °/min
Orbital period
95.81 mins
BSTAR
0.00047155
Loading maneuver chart data...
Computing Atmospheric mass density...
Loading historical data...
Loading historical data...
Loading historical data...
Loading historical data...
Loading historical data...
Loading historical data...
Loading historical data...

Documentation

Showing up to 5 results
|